Cut Bank, MT

4:45 PM MDT on October 22, 2019 (GMT -0600)
Cut Bank Municipal

Weather History for KCTB - August, 2019

Change the Weather History Date:

Wednesday, August 14, 2019

  Actual Average Record
Temperature  
Mean Temperature 62 °F 64 °F  
Max Temperature 79 °F 80 °F 94 °F (1929)
Min Temperature 45 °F 49 °F 36 °F (1928)
Degree Days  
Heating Degree Days 3 3  
Month to date heating degree days 24 33  
Since 1 June heating degree days 339 352  
Since 1 July heating degree days 117 119  
Cooling Degree Days 0 2  
Month to date cooling degree days 42 41  
Year to date cooling degree days 95 130  
Since 1 June cooling degree days 95 128  
Growing Degree Days 12 (Base 50)    
Moisture  
Dew Point 44 °F    
Average Humidity 61    
Maximum Humidity 93    
Minimum Humidity 26    
Precipitation  
Precipitation T in 0.03 in 1.09 in (1915)
Month to date precipitation 0.90 0.51  
Year to date precipitation 8.31 7.98  
Snow  
Snow - - - ()
Snow Depth 0.00 in    
Sea Level Pressure  
Sea Level Pressure 30.09 in    
Wind  
Wind Speed 6 mph ()    
Max Wind Speed 35 mph    
Max Gust Speed 44 mph    
Visibility 9.9 miles    
Events      
T = Trace of Precipitation, MM = Missing Value Source: Averaged Metar Reports

Daily Weather History Graph

Daily Weather History Graph

Search for Another Location

Airport or City:

Astronomy

Aug. 14, 2019 Rise Set
Actual Time 6:21 AM MDT 8:46 PM MDT
Civil Twilight 5:46 AM MDT 9:20 PM MDT
Nautical Twilight 5:02 AM MDT 10:04 PM MDT
Astronomical Twilight 4:11 AM MDT 10:54 PM MDT
Moon 8:48 PM MDT (8/14) 5:13 AM MDT (8/14)
Length of Visible Light 15h 34m
Length of Day
14h 24m
Waxing Gibbous, 99% of the Moon is Illuminated
Aug 14
Waxing Gibbous
Aug 15
Full
Aug 23
Last Quarter
Aug 30
New
Sep 5
First Quarter

Hourly Weather History & Observations

Time (MDT) Temp. Windchill Dew Point Humidity Pressure Visibility Wind Dir Wind Speed Gust Speed Precip Events Conditions
12:56 AM 57.9 °F - 46.9 °F 67% 30.13 in 10.0 mi Calm Calm - N/A   Clear
1:56 AM 54.0 °F - 46.0 °F 75% 30.12 in 10.0 mi Calm Calm - N/A   Clear
2:56 AM 48.9 °F - 45.0 °F 86% 30.13 in 10.0 mi North 5.8 mph - N/A   Clear
3:56 AM 48.0 °F - 45.0 °F 89% 30.11 in 10.0 mi NNW 4.6 mph - N/A   Clear
4:56 AM 46.0 °F 42.5 °F 43.0 °F 89% 30.12 in 9.0 mi NNW 6.9 mph - N/A   Clear
5:56 AM 46.0 °F 43.1 °F 44.1 °F 93% 30.12 in 10.0 mi West 5.8 mph - N/A   Clear
6:56 AM 46.0 °F 43.9 °F 43.0 °F 89% 30.12 in 9.0 mi NNW 4.6 mph - N/A   Clear
7:56 AM 51.1 °F - 48.0 °F 89% 30.11 in 10.0 mi WNW 3.5 mph - N/A   Clear
8:56 AM 57.0 °F - 51.1 °F 81% 30.11 in 10.0 mi Calm Calm - N/A   Clear
9:56 AM 59.0 °F - 50.0 °F 72% 30.11 in 10.0 mi WSW 3.5 mph - N/A   Clear
10:56 AM 64.9 °F - 46.0 °F 50% 30.09 in 10.0 mi WSW 3.5 mph - N/A   Clear
11:56 AM 71.1 °F - 46.0 °F 41% 30.07 in 10.0 mi WNW 9.2 mph - N/A   Clear
12:56 PM 73.9 °F - 43.0 °F 33% 30.05 in 10.0 mi West 12.7 mph - N/A   Clear
1:56 PM 75.0 °F - 41.0 °F 29% 30.04 in 10.0 mi West 11.5 mph - N/A   Clear
2:56 PM 75.0 °F - 42.1 °F 31% 30.05 in 10.0 mi West 12.7 mph - N/A   Clear
3:56 PM 77.0 °F - 39.9 °F 26% 30.03 in 10.0 mi West 13.8 mph - N/A   Clear
4:56 PM 72.0 °F - 43.0 °F 35% 30.04 in 10.0 mi West 13.8 mph - 0.00 in   Scattered Clouds
5:56 PM 73.0 °F - 39.0 °F 29% 30.05 in 10.0 mi West 16.1 mph - N/A   Partly Cloudy
6:56 PM 66.9 °F - 42.1 °F 40% 30.07 in 10.0 mi West 24.2 mph 33.4 mph N/A   Mostly Cloudy
7:56 PM 63.0 °F - 39.9 °F 43% 30.10 in 10.0 mi NW 20.7 mph 31.1 mph N/A   Mostly Cloudy
8:56 PM 57.9 °F - 43.0 °F 58% 30.07 in 10.0 mi NW 12.7 mph - N/A   Partly Cloudy
9:56 PM 55.0 °F - 45.0 °F 69% 30.09 in 10.0 mi West 11.5 mph - N/A   Clear
10:56 PM 54.0 °F - 46.0 °F 75% 30.07 in 10.0 mi Calm Calm - N/A   Clear
11:56 PM 53.1 °F - 45.0 °F 74% 30.07 in 10.0 mi NE 3.5 mph - N/A   Clear